singapore: the smallest big galery
home » forum » Mods

You are not logged in.

Mods

Topic Replies Views Last post
0 525 2017-02-28 15:00:40 by linrx
wordpress template by gingster
8 19686 2013-07-09 13:04:18 by SPOT LIGHTSA
8 10275 2013-06-10 13:13:10 by political
imagemap_navigation = off by snapfamous
2 4733 2013-06-04 04:57:25 by 5Linx a
paypal integration by bwaje
7 12890 2013-05-01 13:30:28 by Mlm
pagination by eddiejanzer
3 8059 2013-04-17 06:43:04 by Rocky90241
Exif howto by bluemoon
13 22966 2013-01-30 09:37:52 by tentionfree
0 2563 2013-01-30 08:06:25 by DavidElise
0 2527 2013-01-30 07:23:28 by seven22
0 2639 2013-01-24 14:42:14 by cheapserviceget
0 2681 2013-01-22 07:08:27 by leopold89
Moving images via admin by forty two  [ 1 2 3 ]
39 71943 2013-01-21 07:48:47 by amusalin
Full Size Image Popup by quicksketch
14 37550 2013-01-17 08:59:30 by forger
0 2659 2012-12-06 06:18:01 by Mattiy
1 5177 2011-12-01 06:42:20 by dick123
facebook like button? by steliosk
4 7176 2011-08-25 21:28:10 by PrimaFoto
2 4855 2011-08-22 20:50:53 by focale31
1 3940 2011-07-05 07:20:25 by mikeatx
2 5659 2011-06-27 19:47:31 by DC
7 14248 2011-06-22 18:04:53 by pcphotos
9 27039 2011-03-27 17:18:14 by DC
14 26806 2010-01-21 15:48:06 by phyllis01
1 5062 2010-01-20 01:56:41 by DC
upload multiple files by eddiejanzer
9 17786 2009-05-18 17:58:31 by PrimaFoto
0 4919 2009-05-13 05:28:55 by DC
8 21285 2008-11-03 04:22:36 by DC
Posting comments by VSingh
1 5831 2008-10-26 22:02:55 by DC
1 6462 2008-09-12 11:54:11 by crash01
4 10104 2008-07-16 22:38:21 by DC
singapore and wordpress by eddiejanzer
3 8861 2008-03-27 13:13:52 by pavian